�������l�o���
Date,Time,MP-1(��Sv/h),MP-2(��Sv/h),MP-3(��Sv/h),MP-4(��Sv/h),MP-5(��Sv/h),MP-6(��Sv/h),MP-7(��Sv/h),MP-8(��Sv/h),����,����(m/s),���J
2016/06/26,00:00,1.269,-,2.141,2.167,1.840,0.635,1.177,1.023,�k��,7.9,��
2016/06/26,00:10,1.271,-,2.144,2.170,1.844,0.636,1.177,1.024,�k��,6.5,��
2016/06/26,00:20,1.270,-,2.141,2.170,1.839,0.636,1.175,1.024,�k��,7.2,��
2016/06/26,00:30,1.271,-,2.145,2.169,1.842,0.634,1.176,1.024,�k��,6.1,��
2016/06/26,00:40,1.269,-,2.140,2.170,1.845,0.635,1.177,1.025,�k��,5.8,��
2016/06/26,00:50,1.269,-,2.141,2.170,1.842,0.634,1.176,1.025,�k��,5.4,��
2016/06/26,01:00,1.271,-,2.140,2.171,1.843,0.633,1.177,1.025,�k��,5.1,��
2016/06/26,01:10,1.267,-,2.144,2.173,1.844,0.631,1.175,1.025,�k��,7.0,��
2016/06/26,01:20,1.272,-,2.142,2.171,1.844,0.630,1.177,1.022,�k�k��,6.0,��
2016/06/26,01:30,1.268,-,2.145,2.169,1.841,0.631,1.177,1.023,�k��,6.7,��
2016/06/26,01:40,1.269,-,2.142,2.172,1.842,0.630,1.176,1.025,�k��,6.0,��
2016/06/26,01:50,1.268,-,2.141,2.171,1.845,0.632,1.177,1.023,�k��,6.7,��
2016/06/26,02:00,1.269,-,2.145,2.170,1.841,0.630,1.178,1.023,�k��,9.1,��
2016/06/26,02:10,1.269,-,2.141,2.173,1.845,0.631,1.178,1.025,�k��,9.4,��
2016/06/26,02:20,1.266,-,2.143,2.171,1.846,0.631,1.178,1.023,�k��,6.9,��
2016/06/26,02:30,1.271,-,2.147,2.174,1.846,0.632,1.179,1.025,�k��,6.2,��
2016/06/26,02:40,1.269,-,2.146,2.170,1.851,0.630,1.179,1.024,�k��,8.8,��
2016/06/26,02:50,1.269,-,2.149,2.176,1.848,0.630,1.179,1.025,���k��,10.5,��
2016/06/26,03:00,1.271,-,2.145,2.172,1.843,0.631,1.175,1.026,���k��,9.9,��
2016/06/26,03:10,1.270,-,2.148,2.177,1.845,0.632,1.180,1.026,���k��,10.7,��
2016/06/26,03:20,1.271,-,2.149,2.173,1.850,0.632,1.178,1.024,���k��,8.9,��
2016/06/26,03:30,1.272,-,2.150,2.177,1.850,0.630,1.181,1.024,���k��,7.9,��
2016/06/26,03:40,1.271,-,2.151,2.178,1.849,0.632,1.179,1.025,���k��,6.7,��
2016/06/26,03:50,1.271,-,2.149,2.180,1.848,0.633,1.180,1.027,��,6.9,��
2016/06/26,04:00,1.272,-,2.151,2.181,1.849,0.633,1.179,1.024,���k��,6.6,��
2016/06/26,04:10,1.272,-,2.153,2.181,1.851,0.634,1.178,1.026,��,9.0,��
2016/06/26,04:20,1.272,-,2.152,2.177,1.854,0.636,1.180,1.026,��,10.6,��
2016/06/26,04:30,1.270,-,2.153,2.182,1.854,0.633,1.182,1.026,��,11.4,��
2016/06/26,04:40,1.273,-,2.155,2.182,1.852,0.633,1.182,1.026,��,11.7,��
2016/06/26,04:50,1.272,-,2.155,2.183,1.853,0.632,1.181,1.027,���쐼,8.9,��
2016/06/26,05:00,1.273,-,2.154,2.182,1.854,0.633,1.182,1.024,��,8.7,��
2016/06/26,05:10,1.272,-,2.155,2.182,1.856,0.634,1.183,1.029,��,9.2,��
2016/06/26,05:20,1.272,-,2.156,2.183,1.855,0.632,1.182,1.026,��,8.2,��
2016/06/26,05:30,1.270,-,2.155,2.186,1.855,0.631,1.182,1.027,��,8.4,��
2016/06/26,05:40,1.272,-,2.157,2.184,1.852,0.634,1.183,1.028,��,6.2,��
2016/06/26,05:50,1.273,-,2.154,2.187,1.858,0.633,1.182,1.027,��,5.4,��
2016/06/26,06:00,1.272,-,2.156,2.186,1.854,0.634,1.181,1.026,��,5.5,��
2016/06/26,06:10,1.274,-,2.159,2.186,1.857,0.635,1.183,1.027,��,5.7,��
2016/06/26,06:20,1.275,-,2.159,2.187,1.856,0.634,1.183,1.027,���쐼,5.0,��
2016/06/26,06:30,1.275,-,2.156,2.186,1.862,0.636,1.183,1.028,��,9.2,��
2016/06/26,06:40,1.276,-,2.161,2.189,1.858,0.634,1.184,1.028,��,11.0,��
2016/06/26,06:50,1.271,-,2.161,2.187,1.858,0.636,1.184,1.027,��,8.8,��
2016/06/26,07:00,1.276,-,2.162,2.187,1.858,0.633,1.184,1.029,��,9.0,��
2016/06/26,07:10,1.276,-,2.162,2.191,1.858,0.634,1.186,1.028,��,9.3,��
2016/06/26,07:20,1.275,-,2.163,2.188,1.858,0.631,1.181,1.027,��,8.7,��
2016/06/26,07:30,1.273,-,2.163,2.190,1.859,0.633,1.183,1.026,��,8.4,��
2016/06/26,07:40,1.274,-,2.161,2.192,1.864,0.634,1.182,1.025,��,7.4,��
2016/06/26,07:50,1.275,-,2.163,2.195,1.865,0.633,1.184,1.025,��,7.4,��
2016/06/26,08:00,1.279,-,2.166,2.195,1.867,0.635,1.185,1.025,��,9.8,��
2016/06/26,08:10,1.276,-,2.164,2.195,1.867,0.632,1.182,1.026,��,8.7,��
2016/06/26,08:20,1.276,-,2.165,2.196,1.867,0.634,1.186,1.025,���쐼,6.2,��
2016/06/26,08:30,1.277,-,2.167,2.197,1.869,0.636,1.185,1.025,��,6.7,��
2016/06/26,08:40,1.278,-,2.168,2.193,1.870,0.634,1.184,1.027,��,5.3,��
2016/06/26,08:50,1.276,-,2.170,2.197,1.870,0.634,1.187,1.028,��,8.2,��
2016/06/26,09:00,1.279,-,2.172,2.195,1.871,0.635,1.185,1.026,��,8.6,��
2016/06/26,09:10,1.280,-,2.171,2.198,1.872,0.636,1.187,1.027,��,8.3,��
2016/06/26,09:20,1.281,-,2.176,2.200,1.873,0.635,1.188,1.027,��,8.1,��
2016/06/26,09:30,1.279,-,2.174,2.198,1.878,0.636,1.189,1.026,��,9.1,��
2016/06/26,09:40,1.280,-,2.178,2.200,1.879,0.635,1.186,1.029,��,10.6,��
2016/06/26,09:50,1.280,-,2.179,2.199,1.880,0.636,1.186,1.027,��,10.7,��
2016/06/26,10:00,1.280,-,2.181,2.202,1.881,0.637,1.188,1.029,��,9.4,��
2016/06/26,10:10,1.282,-,2.182,2.206,1.881,0.636,1.191,1.028,��,9.4,��
2016/06/26,10:20,1.281,-,2.182,2.204,1.884,0.638,1.187,1.027,��,9.3,��
2016/06/26,10:30,1.281,-,2.183,2.206,1.887,0.638,1.188,1.027,��,9.8,��
2016/06/26,10:40,1.281,-,2.188,2.202,1.885,0.637,1.188,1.029,���쐼,8.2,��
2016/06/26,10:50,1.280,-,2.187,2.203,1.888,0.638,1.189,1.028,��,8.8,��
2016/06/26,11:00,1.280,-,2.188,2.205,1.888,0.638,1.189,1.028,��,8.1,��
2016/06/26,11:10,1.283,-,2.187,2.206,1.887,0.638,1.191,1.029,��,7.2,��
2016/06/26,11:20,1.283,-,2.192,2.207,1.892,0.639,1.189,1.031,��,6.4,��
2016/06/26,11:30,1.283,-,2.188,2.209,1.893,0.636,1.189,1.029,��,9.7,��
2016/06/26,11:40,1.283,-,2.193,2.208,1.892,0.638,1.187,1.028,��,9.0,��
2016/06/26,11:50,1.283,-,2.191,2.209,1.894,0.638,1.191,1.028,��,10.3,��
2016/06/26,12:00,1.283,-,2.195,2.209,1.894,0.639,1.189,1.029,��,9.2,��
2016/06/26,12:10,1.283,-,2.191,2.211,1.896,0.637,1.189,1.030,��,7.1,��
2016/06/26,12:20,1.286,-,2.198,2.212,1.898,0.638,1.191,1.030,���쐼,7.7,��
2016/06/26,12:30,1.285,-,2.196,2.214,1.897,0.639,1.192,1.029,��,6.6,��
2016/06/26,12:40,1.286,-,2.198,2.215,1.897,0.639,1.189,1.029,��,7.6,��
2016/06/26,12:50,1.287,-,2.196,2.213,1.900,0.640,1.192,1.031,��,10.0,��
2016/06/26,13:00,1.287,-,2.198,2.215,1.900,0.638,1.192,1.030,��,7.8,��
2016/06/26,13:10,1.289,-,2.200,2.215,1.901,0.640,1.191,1.032,��,9.2,��
2016/06/26,13:20,1.288,-,2.200,2.215,1.905,0.639,1.192,1.032,��,9.0,��
2016/06/26,13:30,1.288,-,2.203,2.218,1.903,0.638,1.194,1.032,��,8.9,��
2016/06/26,13:40,1.289,-,2.204,2.216,1.904,0.640,1.192,1.030,��,8.7,��
2016/06/26,13:50,1.289,-,2.204,2.218,1.906,0.641,1.193,1.031,��,9.9,��
2016/06/26,14:00,1.287,-,2.206,2.217,1.906,0.641,1.193,1.031,��,7.6,��
2016/06/26,14:10,1.289,-,2.207,2.218,1.910,0.641,1.192,1.031,���k��,8.4,��
2016/06/26,14:20,1.293,-,2.206,2.219,1.909,0.640,1.192,1.031,���k��,8.8,��
2016/06/26,14:30,1.291,-,2.203,2.223,1.908,0.642,1.194,1.032,��,9.0,��
2016/06/26,14:40,1.291,-,2.209,2.221,1.906,0.639,1.193,1.031,��,8.7,��
2016/06/26,14:50,1.291,-,2.208,2.220,1.911,0.641,1.193,1.032,���k��,11.0,��
2016/06/26,15:00,1.292,-,2.207,2.225,1.907,0.641,1.193,1.032,���k��,8.0,��
2016/06/26,15:10,1.290,-,2.207,2.225,1.907,0.640,1.191,1.033,���k��,8.8,��
2016/06/26,15:20,1.291,-,2.210,2.223,1.911,0.639,1.193,1.031,���k��,10.0,��
2016/06/26,15:30,1.291,-,2.212,2.223,1.914,0.640,1.192,1.034,���k��,7.7,��
2016/06/26,15:40,1.292,-,2.211,2.223,1.910,0.640,1.194,1.032,��,6.2,��
2016/06/26,15:50,1.294,-,2.213,2.225,1.914,0.641,1.193,1.032,��,6.8,��
2016/06/26,16:00,1.290,-,2.212,2.224,1.911,0.641,1.194,1.032,���k��,7.7,��
2016/06/26,16:10,1.292,-,2.209,2.224,1.911,0.640,1.192,1.034,��,5.7,��
2016/06/26,16:20,1.293,-,2.213,2.228,1.911,0.639,1.195,1.032,���쐼,4.5,��
2016/06/26,16:30,1.291,-,2.211,2.222,1.911,0.640,1.194,1.032,��,5.5,��
2016/06/26,16:40,1.294,-,2.210,2.224,1.909,0.639,1.194,1.033,���쐼,4.0,��
2016/06/26,16:50,1.292,-,2.214,2.227,1.915,0.640,1.193,1.033,�쐼,4.1,��
2016/06/26,17:00,1.294,-,2.213,2.227,1.912,0.638,1.192,1.030,�쐼,4.4,��
2016/06/26,17:10,1.292,-,2.217,2.226,1.914,0.640,1.192,1.032,���쐼,3.3,��
2016/06/26,17:20,1.291,-,2.214,2.227,1.913,0.641,1.192,1.030,�쐼,4.2,��
2016/06/26,17:30,1.290,-,2.215,2.230,1.914,0.640,1.195,1.030,���쐼,4.5,��
2016/06/26,17:40,1.290,-,2.213,2.226,1.913,0.640,1.192,1.033,���쐼,5.1,��
2016/06/26,17:50,1.290,-,2.212,2.228,1.914,0.642,1.193,1.033,���쐼,4.1,��
2016/06/26,18:00,1.294,-,2.216,2.229,1.917,0.641,1.194,1.034,�쐼,3.6,��
2016/06/26,18:10,1.290,-,2.216,2.230,1.914,0.641,1.194,1.034,���쐼,3.3,��
2016/06/26,18:20,1.291,-,2.216,2.229,1.916,0.639,1.195,1.034,�쐼,3.8,��
2016/06/26,18:30,1.290,-,2.213,2.231,1.914,0.639,1.194,1.034,��,4.6,��
2016/06/26,18:40,1.291,-,2.217,2.229,1.914,0.640,1.196,1.034,��,5.2,��
2016/06/26,18:50,1.292,-,2.219,2.230,1.916,0.640,1.194,1.033,��,4.9,��
2016/06/26,19:00,1.292,-,2.217,2.231,1.916,0.641,1.195,1.033,��,3.6,��
2016/06/26,19:10,1.293,-,2.215,2.228,1.916,0.641,1.195,1.034,��,3.4,��
2016/06/26,19:20,1.290,-,2.216,2.233,1.914,0.640,1.194,1.034,���쐼,1.7,��
2016/06/26,19:30,1.294,-,2.215,2.231,1.915,0.640,1.196,1.035,��,0.8,��
2016/06/26,19:40,1.295,-,2.214,2.232,1.915,0.642,1.193,1.034,-,CALM,��
2016/06/26,19:50,1.292,-,2.214,2.226,1.914,0.639,1.197,1.035,-,CALM,��
2016/06/26,20:00,1.294,-,2.209,2.231,1.915,0.640,1.195,1.033,���쐼,0.6,��
2016/06/26,20:10,1.292,-,2.215,2.231,1.913,0.640,1.194,1.033,�k�k��,0.6,��
2016/06/26,20:20,1.296,-,2.213,2.232,1.916,0.641,1.196,1.035,�k,1.1,��
2016/06/26,20:30,1.293,-,2.215,2.231,1.916,0.640,1.194,1.033,�k�k��,4.1,��
2016/06/26,20:40,1.292,-,2.214,2.230,1.914,0.640,1.193,1.033,�k,3.7,��
2016/06/26,20:50,1.292,-,2.214,2.229,1.913,0.641,1.193,1.033,�k�k��,3.1,��
2016/06/26,21:00,1.293,-,2.217,2.228,1.913,0.640,1.193,1.033,�k�k��,3.1,��
2016/06/26,21:10,1.292,-,2.209,2.227,1.915,0.638,1.192,1.032,�k,2.5,��
2016/06/26,21:20,1.294,-,2.212,2.226,1.914,0.642,1.193,1.032,�k,2.8,��
2016/06/26,21:30,1.292,-,2.209,2.229,1.915,0.641,1.194,1.032,�k,2.3,��
2016/06/26,21:40,1.291,-,2.214,2.229,1.914,0.638,1.192,1.033,�k�k��,2.9,��
2016/06/26,21:50,1.293,-,2.211,2.225,1.914,0.640,1.193,1.033,�k,3.1,��
2016/06/26,22:00,1.292,-,2.212,2.227,1.909,0.639,1.194,1.032,�k,3.4,��
2016/06/26,22:10,1.293,-,2.210,2.229,1.915,0.640,1.194,1.034,�k�k��,3.4,��
2016/06/26,22:20,1.291,-,2.213,2.226,1.913,0.641,1.194,1.034,�k�k��,3.6,��
2016/06/26,22:30,1.292,-,2.210,2.226,1.915,0.640,1.193,1.034,�k��,4.8,��
2016/06/26,22:40,1.296,-,2.209,2.226,1.916,0.640,1.194,1.034,�k��,5.6,��
2016/06/26,22:50,1.295,-,2.210,2.228,1.914,0.640,1.193,1.033,�k�k��,3.9,��
2016/06/26,23:00,1.292,-,2.214,2.226,1.912,0.639,1.191,1.035,�k,3.8,��
2016/06/26,23:10,1.296,-,2.207,2.226,1.913,0.641,1.194,1.032,�k�k��,1.5,��
2016/06/26,23:20,1.294,-,2.208,2.227,1.914,0.641,1.193,1.036,�k�k��,2.3,��
2016/06/26,23:30,1.294,-,2.212,2.229,1.913,0.640,1.195,1.032,�k,2.5,��
2016/06/26,23:40,1.291,-,2.211,2.226,1.915,0.639,1.194,1.034,�k,2.2,��
2016/06/26,23:50,1.294,-,2.205,2.226,1.912,0.641,1.193,1.033,�k��,2.2,��
